FW8694 Weather Reports


time (UTC)temp
C
wind
direction
speed
KPH
gust
KPH
rain 1hr
cm
rain 24hr
cm
rain mn
cm
humidity
%
barometer
mb
20260507051612 12 297 0.0 0.0 0.00 0.00 0.00 80 1017.6
20260507050111 13 273 0.0 0.0 0.00 0.00 0.00 79 1017.5
20260507044614 13 234 0.0 0.0 0.00 0.00 0.00 77 1017.4
20260507043110 13 234 0.0 0.0 0.00 0.00 0.00 77 1017.3
20260507041604 14 234 0.0 0.0 0.00 0.00 0.00 76 1017.4
20260507040108 15 175 0.0 0.0 0.00 0.00 0.00 76 1017.1
20260507034611 15 175 0.0 0.0 0.00 0.00 0.00 75 1016.9
20260507033117 16 140 0.0 0.0 0.00 0.00 0.00 74 1016.9
20260507031609 16 140 0.0 0.0 0.00 0.00 0.00 74 1016.7
20260507030105 16 140 0.0 4.8 0.00 0.00 0.00 73 1016.5
20260507024609 16 133 0.0 4.8 0.00 0.00 0.00 72 1016.6
20260507023059 17 144 1.6 11.3 0.00 0.00 0.00 71 1016.4
20260507021613 17 107 3.2 12.9 0.00 0.00 0.00 69 1016.2
20260507020116 18 149 1.6 14.5 0.00 0.00 0.00 68 1016.0
20260507014611 19 115 6.4 16.1 0.00 0.00 0.00 65 1016.0
20260507013117 20 120 3.2 16.1 0.00 0.00 0.00 62 1016.2
20260507011619 20 102 3.2 16.1 0.00 0.00 0.00 60 1016.2
20260507010112 20 172 8.0 17.7 0.00 0.00 0.00 59 1016.2
20260507004612 20 150 6.4 19.3 0.00 0.00 0.00 57 1016.2
20260507003123 21 106 6.4 17.7 0.00 0.00 0.00 56 1015.9
20260507001622 21 140 6.4 19.3 0.00 0.00 0.00 54 1016.0
20260507000428 21 223 4.8 16.1 0.00 0.00 0.00 54 1016.1
20260506234624 21 150 9.7 20.9 0.00 0.00 0.00 53 1016.2
20260506233124 22 161 9.7 19.3 0.00 0.00 0.00 52 1016.0
20260506231942 22 153 8.0 22.5 0.00 0.00 0.00 52 1016.3
20260506230459 22 123 8.0 19.3 0.00 0.00 0.00 53 1016.5
20260506224617 22 179 6.4 24.1 0.00 0.00 0.00 53 1016.6
20260506223243 22 217 4.8 19.3 0.00 0.00 0.00 53 1016.9
20260506221613 22 175 8.0 17.7 0.00 0.00 0.00 52 1017.2
20260506220108 22 113 8.0 19.3 0.00 0.00 0.00 52 1017.5
20260506214937 22 135 8.0 19.3 0.00 0.00 0.00 53 1017.6
20260506213029 22 108 9.7 20.9 0.00 0.00 0.00 53 1017.6
20260506211706 22 175 4.8 17.7 0.00 0.00 0.00 51 1017.9
20260506210047 22 171 4.8 16.1 0.00 0.00 0.00 52 1018.0
20260506204550 22 261 6.4 22.5 0.00 0.00 0.00 54 1018.1
20260506203228 22 142 3.2 14.5 0.00 0.00 0.00 54 1018.1
20260506201556 22 160 9.7 17.7 0.00 0.00 0.00 55 1018.3
20260506200059 22 9 4.8 17.7 0.00 0.00 0.00 56 1018.4
20260506194530 22 152 4.8 16.1 0.00 0.00 0.00 57 1018.3
20260506193027 22 123 3.2 16.1 0.00 0.00 0.00 57 1018.5
20260506191555 22 142 6.4 16.1 0.00 0.00 0.00 58 1018.4
20260506190110 22 236 4.8 17.7 0.00 0.00 0.00 58 1018.5
20260506184609 22 144 4.8 24.1 0.00 0.00 0.00 58 1018.3
20260506183103 22 184 4.8 17.7 0.00 0.00 0.00 59 1018.4
20260506181626 21 209 4.8 17.7 0.00 0.00 0.00 59 1018.8
20260506180101 21 154 6.4 16.1 0.00 0.00 0.00 58 1018.8
20260506174607 21 177 4.8 12.9 0.00 0.00 0.00 57 1018.9
20260506173114 20 220 3.2 16.1 0.00 0.00 0.00 59 1018.9
20260506171647 20 130 4.8 12.9 0.00 0.00 0.00 61 1018.8
20260506170052 19 197 3.2 11.3 0.00 0.00 0.00 63 1018.8
20260506164921 18 202 0.0 6.4 0.00 0.00 0.00 70 1018.9
20260506163047 16 253 0.0 6.4 0.00 0.00 0.00 78 1018.9
20260506161539 15 221 0.0 6.4 0.00 0.00 0.00 83 1018.9
20260506160054 14 360 0.0 6.4 0.00 0.00 0.00 87 1018.8
20260506154552 13 77 0.0 6.4 0.00 0.00 0.00 88 1018.7
20260506153108 12 9 1.6 9.7 0.00 0.00 0.00 89 1018.9
20260506151551 11 59 0.0 6.4 0.00 0.00 0.00 89 1018.8
20260506150057 11 31 1.6 12.9 0.00 0.00 0.00 89 1018.8
20260506144555 10 46 0.0 12.9 0.00 0.00 0.00 89 1018.7
20260506143044 10 5 0.0 6.4 0.00 0.00 0.00 89 1018.5
20260506141535 8 37 0.0 4.8 0.00 0.00 0.00 89 1018.5
20260506140050 7 303 0.0 0.0 0.00 0.00 0.00 89 1018.6
20260506134551 7 280 0.0 0.0 0.00 0.00 0.00 89 1018.6
20260506133047 7 309 0.0 0.0 0.00 0.00 0.00 89 1018.4
20260506131551 6 323 0.0 0.0 0.00 0.00 0.00 89 1018.5
20260506130050 7 333 0.0 0.0 0.00 0.00 0.00 89 1018.3
20260506124554 7 325 0.0 0.0 0.00 0.00 0.00 89 1018.2
20260506123051 7 338 0.0 0.0 0.00 0.00 0.00 88 1018.1
20260506121555 7 305 0.0 0.0 0.00 0.00 0.00 89 1017.9
20260506120049 7 306 0.0 0.0 0.00 0.00 0.00 89 1017.8
20260506114530 7 290 0.0 0.0 0.00 0.00 0.00 88 1017.7
20260506113050 7 309 0.0 0.0 0.00 0.00 0.00 88 1017.8
20260506111545 7 327 0.0 0.0 0.00 0.00 0.00 88 1017.8
20260506110048 8 17 0.0 0.0 0.00 0.00 0.00 88 1017.8
20260506104558 8 304 0.0 0.0 0.00 0.00 0.00 88 1017.8
20260506103056 8 306 0.0 0.0 0.00 0.00 0.00 88 1017.6
20260506101548 8 295 0.0 0.0 0.00 0.00 0.00 88 1017.5
20260506100106 8 292 0.0 1.6 0.00 0.00 0.00 88 1017.8
20260506094559 8 322 0.0 0.0 0.00 0.00 0.00 88 1017.7
20260506093056 8 5 0.0 0.0 0.00 0.00 0.00 87 1017.8
20260506091603 8 5 0.0 0.0 0.00 0.00 0.00 87 1017.9
20260506090104 8 298 0.0 0.0 0.00 0.00 0.00 87 1018.0
20260506084550 8 286 0.0 0.0 0.00 0.00 0.00 87 1018.1
20260506083056 8 315 0.0 0.0 0.00 0.00 0.00 87 1018.2
20260506081602 9 355 0.0 0.0 0.00 0.00 0.00 87 1018.3
20260506080120 9 284 0.0 3.2 0.00 0.00 0.00 86 1018.3
20260506073050 9 310 0.0 1.6 0.00 0.00 0.00 85 1018.2
20260506071605 9 310 0.0 0.0 0.00 0.00 0.00 85 1018.1
20260506061553 10 304 0.0 0.0 0.00 0.00 0.00 82 1017.4